[TLELIST] Archives

 

[TLELIST] Current TLEs

March 3rd 2026 PDT

0 HST 1 20580U 90037B 26062.15651664 .00008766 00000-0 29119-3 0 9996 2 20580 28.4701 84.5634 0001675 60.3567 299.7195 15.29358901772310 0 ISS (ZARYA) 1 25544U 98067A 26061.93054995 .00009325 00000-0 18075-3 0 9992 2 25544 51.6319 105.7724 0008215 150.8374 209.3074 15.48408287555284 0 CXO 1 25867U 99040B 26063.59985680 .00000824 00000-0 00000-0 0 9991 2 25867 54.4843 119.7682 8003286 310.7757 0.4217 0.37808937 16926 ...Continue Reading

[TLELIST] Current TLEs

March 2nd 2026 PDT

0 HST 1 20580U 90037B 26061.17768228 .00008803 00000-0 29260-3 0 9991 2 20580 28.4700 91.2397 0001619 50.0273 310.0465 15.29341956772160 0 ISS (ZARYA) 1 25544U 98067A 26060.83336604 .00009867 00000-0 19089-3 0 9997 2 25544 51.6319 111.1961 0008284 147.0223 213.1284 15.48387794555112 0 CXO 1 25867U 99040B 26063.59985680 .00000824 00000-0 00000-0 0 9991 2 25867 54.4843 119.7682 8003286 310.7757 0.4217 0.37808937 16926 ...Continue Reading

[TLELIST] Current TLEs

March 1st 2026 PDT

0 HST 1 20580U 90037B 26060.19883699 .00008534 00000-0 28360-3 0 9993 2 20580 28.4699 97.9157 0001562 39.6890 320.3820 15.29324944772010 0 ISS (ZARYA) 1 25544U 98067A 26060.18795710 .00009357 00000-0 18155-3 0 9999 2 25544 51.6323 114.3864 0008293 144.7575 215.3963 15.48374594555019 0 CXO 1 25867U 99040B 26060.95492292 .00000888 00000-0 00000-0 0 9990 2 25867 54.4516 119.8366 8010409 310.7933 0.3631 0.37807248 16916 ...Continue Reading

[TLELIST] Current TLEs

March 1st 2026 PDT

0 HST 1 20580U 90037B 26060.19883699 .00008534 00000-0 28360-3 0 9993 2 20580 28.4699 97.9157 0001562 39.6890 320.3820 15.29324944772010 0 ISS (ZARYA) 1 25544U 98067A 26060.18795710 .00009357 00000-0 18155-3 0 9999 2 25544 51.6323 114.3864 0008293 144.7575 215.3963 15.48374594555019 0 CXO 1 25867U 99040B 26060.95492292 .00000888 00000-0 00000-0 0 9990 2 25867 54.4516 119.8366 8010409 310.7933 0.3631 0.37807248 16916 ...Continue Reading

[TLELIST] Current TLEs

February 28th 2026 PDT

0 HST 1 20580U 90037B 26059.21998053 .00007705 00000-0 25546-3 0 9997 2 20580 28.4697 104.5911 0001442 29.0011 331.0665 15.29307981771866 0 ISS (ZARYA) 1 25544U 98067A 26059.21983326 .00010172 00000-0 19675-3 0 9998 2 25544 51.6325 119.1716 0008306 141.5469 218.6112 15.48355484554863 0 CXO 1 25867U 99040B 26060.95492292 .00000888 00000-0 00000-0 0 9990 2 25867 54.4516 119.8366 8010409 310.7933 0.3631 0.37807248 16916 ...Continue Reading

[TLELIST] Current TLEs

February 28th 2026 PDT

0 HST 1 20580U 90037B 26059.21998053 .00007705 00000-0 25546-3 0 9997 2 20580 28.4697 104.5911 0001442 29.0011 331.0665 15.29307981771866 0 ISS (ZARYA) 1 25544U 98067A 26059.21983326 .00010172 00000-0 19675-3 0 9998 2 25544 51.6325 119.1716 0008306 141.5469 218.6112 15.48355484554863 0 CXO 1 25867U 99040B 26060.95492292 .00000888 00000-0 00000-0 0 9990 2 25867 54.4516 119.8366 8010409 310.7933 0.3631 0.37807248 16916 ...Continue Reading

[TLELIST] Current TLEs

February 27th 2026 PDT

0 HST 1 20580U 90037B 26058.24111410 .00008127 00000-0 26999-3 0 9995 2 20580 28.4695 111.2668 0001391 17.2349 342.8294 15.29292719771718 0 ISS (ZARYA) 1 25544U 98067A 26058.25169714 .00013796 00000-0 26393-3 0 9998 2 25544 51.6322 123.9568 0008343 138.2013 221.9613 15.48333785554714 0 CXO 1 25867U 99040B 26060.95492292 .00000888 00000-0 00000-0 0 9990 2 25867 54.4516 119.8366 8010409 310.7933 0.3631 0.37807248 16916 ...Continue Reading

[TLELIST] Current TLEs

February 27th 2026 PDT

0 HST 1 20580U 90037B 26058.24111410 .00008127 00000-0 26999-3 0 9995 2 20580 28.4695 111.2668 0001391 17.2349 342.8294 15.29292719771718 0 ISS (ZARYA) 1 25544U 98067A 26058.25169714 .00013796 00000-0 26393-3 0 9998 2 25544 51.6322 123.9568 0008343 138.2013 221.9613 15.48333785554714 0 CXO 1 25867U 99040B 26060.95492292 .00000888 00000-0 00000-0 0 9990 2 25867 54.4516 119.8366 8010409 310.7933 0.3631 0.37807248 16916 ...Continue Reading

[TLELIST] Current TLEs

February 26th 2026 PDT

0 HST 1 20580U 90037B 26057.19697879 .00007066 00000-0 23393-3 0 9992 2 20580 28.4692 118.3875 0001324 4.9047 355.1562 15.29274667771556 0 ISS (ZARYA) 1 25544U 98067A 26057.21900081 .00012044 00000-0 23175-3 0 9993 2 25544 51.6320 129.0607 0008349 134.6702 225.4968 15.48304484554552 0 CXO 1 25867U 99040B 26058.30952098 .00000943 00000-0 00000-0 0 9993 2 25867 54.4003 119.9253 8017056 310.7831 0.2871 0.37805114 16909 ...Continue Reading

[TLELIST] Current TLEs

February 25th 2026 PDT

0 HST 1 20580U 90037B 26056.28335081 .00007140 00000-0 23653-3 0 9997 2 20580 28.4689 124.6179 0001260 353.4201 6.6378 15.29261769771419 0 ISS (ZARYA) 1 25544U 98067A 26056.18628621 .00010179 00000-0 19739-3 0 9993 2 25544 51.6318 134.1640 0008356 131.0189 229.1523 15.48279367554392 0 CXO 1 25867U 99040B 26058.30952098 .00000943 00000-0 00000-0 0 9993 2 25867 54.4003 119.9253 8017056 310.7831 0.2871 0.37805114 16909 ...Continue Reading
  • This mailing list is a public mailing list - anyone may join or leave, at any time.
  • This mailing list is announce-only.

International Space Station (ISS) / Hubble Space Telescope (HST) / Chandra X-Ray Observatory Orbital Data via EMAIL

Privacy Policy:

Private list